Tracking 19717 objects as of 25-Jun-2019
HD Live streaming from Space Station
objects crossing your sky now

COSMOS 858

Track COSMOS 858 now!
10-day predictions
COSMOS 858 is classified as:


NORAD ID: 9443
Int'l Code: 1976-098A
Perigee: 775.2 km
Apogee: 795.0 km
Inclination: 74.0 °
Period: 100.4 minutes
Semi major axis: 7156 km
RCS: 2.2223 m2 (large)
Launch date: September 29, 1976
Source: Commonwealth of Independent States (former USSR) (CIS)
Launch site: PLESETSK MISSILE AND SPACE COMPLEX (PKMTR)
aabbcc
Your satellite tracking list
Your tracking list is empty




NASA's NSSDC Master Catalog

Two Line Element Set (TLE):
1  9443U 76098A   19176.23415153  .00000032  00000-0  20724-4 0  9992
2  9443  74.0486 141.9188 0013856 174.6286 185.5017 14.34128121233541
Source of the keplerian elements: AFSPC